Dewpoint
72 74 77 77 76 75 75 75 75 76 76 77 77 77 77 76 76 76 76 76 76 76 75 75 74 73 73 73 73 72 73 73 74 73 75 75 75 75 74 76 75 73 74
73 74 78 77 76 75 75 75 75 76 75 75 75 75 75 75 75 75 75 74 73 73 73 72 72 72 72 71 72 72 72 72 72 73 72 75 75 75 74 74 75 75 75
73 74 75 77 77 75 75 75 75 75 74 74 74 74 74 75 75 75 74 74 73 73 73 73 72 73 73 72 71 71 72 72 72 73 73 69 72 75 75 73 75 76 75
73 74 74 77 77 76 76 75 75 74 74 74 74 74 74 74 74 74 74 73 73 73 73 73 73 72 72 72 72 72 71 73 73 73 75 70 68 69 74 74 75 75 75
74 74 74 78 77 75 75 75 75 75 75 75 75 74 74 74 74 74 73 73 73 73 72 73 73 73 72 72 72 72 72 72 72 73 72 72 70 69 73 75 75 75 75
73 75 77 78 76 76 75 75 75 75 75 75 75 75 75 74 74 73 73 74 73 73 73 72 72 71 71 70 70 70 71 71 72 71 71 72 72 71 72 75 75 75 75
73 75 76 78 77 77 76 76 75 75 75 76 76 75 75 75 74 74 74 74 74 74 73 73 72 72 72 72 72 72 73 73 70 69 69 71 72 73 73 75 75 76 75
73 74 75 77 77 77 76 76 76 76 77 76 76 75 75 75 75 75 74 74 75 75 75 74 73 73 72 73 73 74 74 74 72 70 69 69 72 74 74 75 77 77 76
74 74 74 74 75 76 77 77 77 76 76 76 75 75 75 74 74 74 74 74 75 75 75 74 73 73 74 75 75 76 75 75 73 73 72 70 73 75 75 76 77 77 77
73 73 74 75 73 74 74 77 76 76 76 75 74 74 74 74 74 74 75 77 75 75 74 73 73 74 75 75 75 76 76 76 74 74 74 73 74 76 76 75 75 77 76
71 73 74 73 73 73 73 74 76 75 74 74 75 75 75 73 73 74 75 76 76 74 73 74 75 73 72 71 75 76 76 75 75 74 75 75 76 77 76 76 76 77 76
69 71 72 73 73 72 73 73 74 72 73 74 75 73 73 73 74 74 75 76 76 75 76 77 73 72 72 73 74 74 75 75 75 75 74 76 76 77 76 76 75 76 77
68 70 71 71 72 71 70 72 74 74 73 73 73 73 73 73 73 73 73 72 73 75 75 74 72 73 73 73 73 74 73 68 74 75 74 76 76 77 77 76 76 76 76
67 68 70 70 70 70 69 71 72 73 73 72 72 72 72 72 71 70 70 70 71 73 74 72 71 71 71 73 73 73 72 71 73 74 75 76 76 76 75 75 75 75 76
65 66 68 68 68 68 67 70 70 72 72 71 71 71 72 71 71 70 69 72 72 73 73 72 71 71 71 72 73 73 72 73 72 73 73 74 77 76 76 75 75 76 76
63 64 66 66 67 66 66 69 67 68 70 71 70 71 71 71 70 67 69 71 72 73 73 73 71 72 72 72 72 72 72 70 71 72 72 75 75 76 76 77 76 76 76
61 63 64 64 65 64 66 68 67 68 68 69 70 70 70 70 68 68 70 69 69 70 72 72 72 72 72 73 72 71 71 71 73 71 74 72 73 74 75 75 76 76 77
60 61 63 63 64 64 66 68 68 69 69 67 67 70 70 68 68 68 68 68 68 69 70 71 73 72 72 71 70 71 72 72 73 73 75 74 74 74 74 73 75 76 76
58 61 61 63 63 67 67 68 69 69 69 69 68 69 69 68 68 68 71 70 71 71 70 70 71 72 71 71 72 71 71 70 71 73 73 74 74 71 70 73 73 72 73
57 63 62 62 64 66 70 70 69 69 69 70 68 67 69 69 68 68 68 68 69 70 70 70 71 70 68 67 71 73 71 72 71 72 70 72 73 71 69 73 71 73 74
57 62 63 63 63 66 69 70 70 68 68 68 68 67 68 69 69 68 69 69 69 70 70 70 70 70 69 71 70 68 69 70 70 70 70 71 73 74 73 69 69 72 74
56 59 62 64 66 66 67 68 68 69 69 68 67 67 66 69 69 69 70 70 70 70 70 71 71 71 71 71 68 66 65 66 68 68 67 67 69 73 73 73 74 74 71
57 59 64 66 67 68 70 69 69 69 68 68 67 66 65 68 69 70 70 71 70 70 69 70 71 71 69 70 71 68 64 62 65 67 63 64 66 68 69 72 73 74 73
58 59 62 67 68 69 70 69 69 67 66 66 67 67 66 67 68 70 71 71 70 70 69 70 71 72 71 69 70 71 69 66 64 63 67 68 67 67 68 69 73 74 73
58 59 61 66 69 69 70 69 68 68 68 68 69 68 68 67 68 68 69 69 71 71 71 71 71 71 72 71 70 69 69 69 67 65 64 66 68 68 70 70 71 74 73
59 60 62 66 68 69 69 69 68 68 70 69 69 68 69 69 71 70 68 68 68 71 72 72 71 71 71 72 71 70 69 68 67 66 65 66 66 67 66 69 71 72 73
Lifted_Index
-3 -4 -5 -4 -4 -4 -4 -3 -4 -4 -4 -4 -5 -5 -5 -5 -5 -5 -5 -5 -5 -5 -5 -5 -5 -5 -5 -5 -5 -5 -5 -5 -5 -5 -6 -6 -6 -6 -6 -6 -5 -5 -4
-3 -4 -4 -5 -4 -4 -4 -3 -3 -4 -4 -4 -4 -4 -5 -5 -5 -5 -5 -5 -5 -5 -5 -5 -5 -5 -4 -4 -5 -5 -5 -5 -5 -5 -5 -6 -6 -6 -5 -5 -5 -5 -5
-3 -4 -4 -5 -4 -4 -3 -3 -3 -3 -3 -3 -4 -4 -4 -4 -5 -5 -5 -5 -5 -5 -5 -5 -5 -5 -4 -4 -4 -4 -4 -4 -4 -5 -5 -5 -5 -5 -5 -5 -5 -5 -5
-3 -3 -4 -4 -4 -4 -3 -3 -3 -3 -3 -3 -3 -3 -4 -4 -4 -4 -4 -5 -5 -5 -5 -5 -5 -5 -4 -4 -4 -4 -4 -4 -4 -5 -5 -4 -3 -4 -5 -5 -5 -5 -5
-3 -3 -4 -4 -4 -3 -3 -3 -3 -3 -3 -3 -3 -4 -4 -4 -4 -4 -4 -4 -4 -4 -5 -4 -4 -4 -4 -3 -3 -3 -3 -4 -4 -4 -4 -3 -3 -3 -4 -5 -5 -5 -5
-3 -3 -4 -4 -3 -3 -3 -3 -3 -3 -3 -4 -4 -4 -4 -4 -4 -4 -4 -4 -4 -4 -4 -4 -4 -3 -3 -3 -2 -2 -3 -3 -3 -3 -3 -3 -3 -3 -4 -5 -5 -5 -5
-3 -3 -4 -4 -3 -3 -3 -3 -3 -3 -4 -4 -4 -4 -4 -4 -4 -4 -4 -4 -4 -4 -4 -4 -3 -3 -3 -3 -3 -3 -3 -3 -3 -3 -2 -2 -3 -3 -4 -5 -6 -5 -4
-2 -3 -3 -3 -3 -3 -3 -3 -3 -4 -4 -4 -4 -4 -4 -4 -5 -4 -4 -5 -5 -5 -4 -4 -3 -3 -3 -3 -4 -4 -4 -4 -4 -3 -3 -2 -2 -3 -4 -5 -6 -6 -5
-2 -2 -3 -3 -3 -3 -3 -3 -3 -4 -4 -4 -4 -4 -4 -4 -4 -4 -4 -5 -5 -5 -4 -4 -4 -4 -4 -4 -5 -5 -5 -5 -4 -4 -3 -3 -3 -4 -4 -4 -5 -5 -5
-2 -2 -2 -2 -2 -3 -3 -3 -3 -3 -3 -3 -3 -3 -3 -3 -4 -4 -4 -5 -5 -5 -4 -4 -4 -4 -4 -5 -5 -5 -5 -5 -5 -5 -4 -4 -4 -4 -4 -4 -4 -4 -5
-1 -1 -2 -2 -2 -2 -3 -3 -3 -3 -3 -3 -3 -3 -3 -3 -3 -4 -5 -5 -5 -4 -4 -4 -4 -4 -4 -4 -4 -5 -5 -5 -5 -5 -5 -4 -4 -5 -4 -4 -3 -4 -4
-1 -1 -1 -1 -1 -2 -2 -2 -2 -2 -3 -3 -4 -3 -3 -3 -3 -4 -4 -4 -5 -5 -5 -5 -4 -3 -3 -3 -4 -4 -5 -4 -5 -5 -5 -5 -5 -5 -5 -4 -4 -4 -4
-0 -0 -0 -1 -1 -1 -1 -1 -2 -2 -2 -3 -3 -3 -3 -2 -3 -3 -3 -3 -4 -4 -4 -4 -4 -3 -2 -3 -3 -4 -4 -3 -4 -4 -5 -5 -5 -5 -5 -4 -4 -4 -4
1 1 0 0 0 -0 -0 -1 -1 -2 -2 -2 -2 -2 -2 -2 -2 -2 -2 -2 -3 -4 -4 -3 -3 -3 -2 -2 -3 -3 -3 -2 -2 -3 -4 -5 -5 -6 -5 -4 -4 -4 -4
2 1 1 1 1 1 0 0 -1 -1 -2 -2 -2 -2 -2 -2 -2 -2 -2 -3 -3 -4 -4 -3 -3 -3 -3 -2 -2 -3 -3 -2 -2 -2 -3 -4 -5 -5 -5 -5 -4 -4 -4
2 2 1 1 2 1 1 0 -0 -1 -1 -1 -2 -2 -2 -2 -2 -2 -2 -3 -4 -4 -4 -4 -3 -3 -3 -3 -3 -3 -3 -3 -2 -2 -2 -3 -4 -5 -5 -5 -5 -5 -5
2 1 1 1 1 1 1 0 -0 -1 -1 -1 -2 -2 -2 -2 -2 -2 -2 -2 -3 -3 -4 -4 -4 -3 -3 -3 -3 -3 -3 -3 -3 -4 -3 -3 -3 -4 -4 -4 -5 -5 -5
2 1 1 1 1 1 1 -0 -1 -1 -1 -1 -2 -2 -2 -2 -1 -1 -1 -2 -2 -3 -3 -4 -4 -4 -3 -3 -3 -3 -3 -4 -4 -4 -4 -3 -3 -3 -3 -3 -4 -4 -4
2 2 1 1 1 0 -0 -1 -1 -1 -1 -1 -1 -1 -1 -1 -1 -1 -1 -2 -2 -3 -3 -4 -4 -4 -4 -3 -3 -4 -4 -4 -4 -4 -4 -3 -3 -2 -2 -3 -3 -4 -4
3 2 2 1 1 -0 -1 -2 -2 -1 -1 -1 -1 -1 -1 -1 -1 -1 -1 -1 -2 -3 -3 -3 -4 -4 -4 -4 -4 -4 -4 -4 -4 -3 -3 -2 -2 -1 -1 -2 -3 -4 -4
3 2 2 1 1 -0 -1 -2 -2 -2 -2 -2 -2 -1 -1 -1 -1 -1 -1 -2 -2 -3 -3 -4 -4 -4 -4 -4 -4 -4 -4 -4 -3 -3 -2 -2 -2 -3 -3 -2 -3 -4 -5
2 2 1 1 0 -1 -1 -2 -2 -2 -2 -2 -2 -2 -1 -1 -1 -2 -2 -2 -2 -3 -3 -4 -4 -4 -5 -5 -4 -4 -4 -4 -3 -3 -2 -2 -2 -3 -3 -3 -4 -5 -5
2 1 1 -0 -1 -1 -2 -2 -2 -2 -2 -3 -3 -2 -2 -2 -2 -3 -3 -3 -3 -3 -4 -4 -4 -4 -4 -4 -4 -5 -4 -4 -4 -4 -3 -2 -2 -2 -3 -3 -4 -5 -5
2 1 1 -1 -2 -2 -2 -2 -2 -2 -3 -3 -3 -3 -3 -3 -3 -3 -4 -4 -3 -4 -4 -4 -4 -4 -4 -4 -5 -5 -5 -5 -5 -5 -4 -3 -3 -3 -3 -4 -5 -5 -5
1 1 1 -0 -1 -2 -2 -2 -2 -3 -3 -4 -4 -4 -4 -4 -4 -4 -4 -5 -5 -4 -4 -4 -4 -5 -5 -5 -5 -6 -6 -6 -6 -5 -5 -4 -4 -4 -4 -4 -5 -5 -6
1 1 1 0 -1 -1 -2 -2 -3 -3 -4 -4 -5 -5 -5 -5 -5 -5 -5 -5 -5 -5 -5 -5 -5 -5 -5 -5 -6 -6 -6 -6 -6 -6 -5 -5 -4 -4 -4 -4 -4 -5 -5